Helicity
189 173 169 149 110 88 86 91 86 79 70 62 54 45 44 52 55 52 50 56 63 61
204 197 176 124 85 86 94 91 86 78 68 67 67 65 59 72 66 61 64 62 74 77
209 193 157 122 115 108 105 101 90 76 76 78 78 77 68 80 85 79 82 86 91 98
204 189 154 139 119 114 112 98 90 92 93 92 88 86 84 89 90 91 92 97 102 99
196 180 154 136 121 119 113 102 106 104 97 91 88 92 92 95 97 100 99 97 98 101
189 176 157 136 128 122 109 112 109 99 93 92 98 95 96 93 95 97 103 98 97 100
185 181 154 135 125 110 107 108 100 92 90 96 97 92 98 96 90 93 106 103 97 96
195 171 143 124 110 104 99 100 96 91 90 92 97 123 110 93 90 93 101 103 90 97
175 154 126 111 102 96 93 101 97 94 89 90 109 201 114 85 84 85 106 109 91 85
159 139 118 110 98 91 102 107 98 94 88 93 113 195 119 85 80 85 112 116 109 89
153 134 118 103 93 99 101 107 112 107 95 95 136 174 127 85 69 91 112 112 106 92
153 133 117 110 109 104 105 110 117 109 95 95 112 215 143 87 91 102 108 108 89 101
159 135 127 123 112 112 107 116 123 107 94 125 87 188 155 106 116 112 132 94 74 88
165 144 133 124 114 112 116 116 116 103 101 97 113 119 161 118 104 136 130 118 105 84
Wind_Speed
35 37 40 42 43 45 45 46 48 51 52 56 59 63 64 62 62 64 65 66 66 68
35 37 39 40 41 42 43 43 47 49 52 54 58 61 63 62 63 65 66 67 67 68
35 36 37 38 40 40 41 44 47 49 51 53 56 60 61 60 61 65 65 64 68 68
34 36 36 38 38 39 41 45 47 49 51 53 56 59 59 60 61 64 66 65 66 68
33 34 36 37 37 38 41 44 47 49 51 53 56 58 59 62 62 65 67 67 67 69
32 34 35 35 36 38 41 44 46 48 51 53 56 58 59 61 63 65 66 66 68 69
32 33 34 34 36 38 41 44 46 47 50 52 54 55 59 64 65 65 66 66 66 66
31 32 33 34 36 39 42 44 46 48 50 51 52 54 62 66 67 67 67 66 65 65
31 32 33 34 37 39 42 44 46 49 50 52 52 54 61 65 67 67 67 70 68 68
30 32 33 35 38 40 43 45 47 48 50 52 52 54 61 65 65 65 67 68 71 72
29 32 34 35 39 41 43 45 47 48 49 52 52 54 60 66 63 65 66 67 69 71
28 31 33 36 39 42 43 45 46 48 50 52 54 55 61 66 65 68 69 69 68 70
27 31 34 37 39 41 42 45 46 49 51 52 52 54 60 65 67 70 71 70 68 68
27 31 34 36 38 40 42 45 48 49 51 50 51 55 58 61 67 68 72 70 71 68
Wind_Direction
15 13 11 9 8 6 6 6 6 5 3 359 355 351 349 348 346 343 342 340 340 338
11 10 9 10 8 8 8 8 6 4 2 1 357 354 351 349 347 345 344 341 341 340
9 9 9 9 7 7 7 6 4 3 2 1 359 356 354 352 350 347 346 345 343 342
6 6 7 6 6 5 5 3 1 1 0 359 357 355 354 352 351 348 346 346 345 343
5 5 3 3 4 4 2 2 360 359 358 357 356 354 353 351 350 348 345 345 344 343
1 0 360 2 2 1 0 359 358 357 356 356 355 353 352 350 349 347 346 345 344 342
357 357 359 359 359 358 357 356 356 355 354 355 354 353 351 348 348 346 345 345 344 343
356 356 356 355 355 355 354 354 354 353 353 353 354 353 349 347 347 345 344 345 344 343
352 351 351 351 351 351 351 352 352 351 351 351 352 352 350 348 346 346 345 343 344 343
347 346 347 348 348 348 348 350 349 350 350 350 351 352 350 348 347 346 345 345 343 343
343 343 345 345 345 346 347 348 349 349 349 348 350 351 349 347 348 347 346 346 344 343
340 341 342 342 343 344 346 347 348 348 348 347 348 351 349 348 348 347 347 347 345 344
337 338 339 341 342 344 345 346 347 347 347 347 348 350 349 349 348 346 347 347 346 346
334 336 339 340 342 343 344 345 345 345 346 347 349 348 350 350 348 348 347 347 347 346